Weather History for Boscobel, WI

Change the Weather History Date:

Saturday, October 6, 2012

  Actual Average (KPDC) Record (KPDC)
Temperature  
Mean Temperature 42 °F -  
Max Temperature 45 °F 66 °F 93 °F (1963)
Min Temperature 39 °F 44 °F 24 °F (1952)
Degree Days  
Heating Degree Days 23    
Moisture  
Dew Point 27 °F    
Average Humidity 56    
Maximum Humidity 65    
Minimum Humidity 47    
Precipitation  
Precipitation 0.00 in - - ()
Sea Level Pressure  
Sea Level Pressure 30.20 in    
Wind  
Wind Speed 7 mph (WNW)    
Max Wind Speed 14 mph    
Max Gust Speed 17 mph    
Visibility 10 miles    
Events      
Averages and records for this station are not official NWS values.
T = Trace of Precipitation, MM = Missing Value Source: NWS Daily Summary

Daily Weather History Graph

Daily Weather History Graph

Search for Another Location

Airport:

Trip Planner

Search our weather history database for the weather conditions in past years. The results will help you decide how hot, cold, wet, or windy it might be!

Date:

Astronomy

Oct. 06, 2012 Rise Set
Actual Time 7:06 AM CDT 6:34 PM CDT
Civil Twilight 6:37 AM CDT 7:02 PM CDT
Nautical Twilight 6:04 AM CDT 7:35 PM CDT
Astronomical Twilight 5:31 AM CDT 8:08 PM CDT
Moon 10:42 PM CDT (10/6) 1:08 PM CDT (10/6)
Length of Visible Light 12h 24m
Length of Day
11h 27m
Waning Gibbous, 65% of the Moon is Illuminated
Oct 6
Waning Gibbous
Oct 8
Last Quarter
Oct 15
New
Oct 21
First Quarter
Oct 29
Full

Hourly Weather History & Observations

Time (CDT) Temp. Windchill Dew Point Humidity Pressure Visibility Wind Dir Wind Speed Gust Speed Precip Events Conditions
12:53 AM 39.9 °F 35.1 °F 26.1 °F 58% 30.12 in 10.0 mi Variable 6.9 mph - N/A   Overcast
1:53 AM 41.0 °F 35.2 °F 26.1 °F 55% 30.13 in 10.0 mi West 9.2 mph - N/A   Overcast
2:53 AM 42.1 °F 38.4 °F 26.1 °F 53% 30.12 in 10.0 mi West 5.8 mph - N/A   Overcast
3:53 AM 42.1 °F 35.7 °F 25.0 °F 51% 30.12 in 10.0 mi WNW 11.5 mph 17.3 mph N/A   Overcast
4:53 AM 41.0 °F 35.2 °F 25.0 °F 53% 30.13 in 10.0 mi WNW 9.2 mph - N/A   Overcast
5:53 AM 39.0 °F 31.0 °F 27.0 °F 62% 30.15 in 10.0 mi NW 13.8 mph 17.3 mph N/A   Overcast
6:53 AM 39.0 °F 34.8 °F 28.0 °F 65% 30.16 in 10.0 mi West 5.8 mph - N/A   Overcast
7:53 AM 39.0 °F 34.8 °F 28.0 °F 65% 30.18 in 10.0 mi WNW 5.8 mph - N/A   Overcast
8:53 AM 39.9 °F 36.7 °F 28.0 °F 63% 30.20 in 10.0 mi West 4.6 mph - N/A   Overcast
9:53 AM 42.1 °F 39.2 °F 30.0 °F 62% 30.21 in 10.0 mi West 4.6 mph - N/A   Overcast
10:53 AM 43.0 °F 37.7 °F 28.0 °F 56% 30.23 in 10.0 mi NW 9.2 mph - N/A   Overcast
11:53 AM 43.0 °F 37.7 °F 28.0 °F 56% 30.23 in 10.0 mi WNW 9.2 mph - N/A   Overcast
1:53 PM 45.0 °F 40.6 °F 26.1 °F 48% 30.22 in 10.0 mi NNW 8.1 mph 16.1 mph N/A   Overcast
2:53 PM 44.1 °F 40.8 °F 26.1 °F 49% 30.22 in 10.0 mi NW 5.8 mph - N/A   Overcast
3:53 PM 44.1 °F 40.1 °F 25.0 °F 47% 30.22 in 10.0 mi NNW 6.9 mph - N/A   Overcast
4:53 PM 44.1 °F 41.5 °F 26.1 °F 49% 30.21 in 10.0 mi North 4.6 mph - N/A   Overcast
5:53 PM 43.0 °F 40.3 °F 27.0 °F 53% 30.23 in 10.0 mi WNW 4.6 mph - N/A   Overcast
6:53 PM 42.1 °F - 26.1 °F 53% 30.24 in 10.0 mi Calm Calm - N/A   Overcast
7:53 PM 42.1 °F - 27.0 °F 55% 30.25 in 10.0 mi Calm Calm - N/A   Overcast
8:53 PM 41.0 °F - 28.0 °F 60% 30.25 in 10.0 mi Calm Calm - N/A   Overcast
9:53 PM 39.9 °F 37.8 °F 28.0 °F 63% 30.25 in 10.0 mi WNW 3.5 mph - N/A   Overcast
10:53 PM 39.9 °F 37.8 °F 28.0 °F 63% 30.25 in 10.0 mi WNW 3.5 mph - N/A   Overcast